Location: Observatoire de l'Aigle
(47.0607°N, 71.3152°W)
Time: 15:45:40
(UTC-05:00)

Amateur Radio Satellites - All Passes

Search period start: 20 November 2014 15:15
Search period end: 21 November 2014 15:15
Location: Observatoire de l'Aigle, 47.0607°N, 71.3152°W

Satellite Date Start Highest point End Downlink Frequencies (MHz)
Time Altitude Azimuth
SWISSCUBE 20 Nov 15:17:34 15:19:12 12° 306° (NW) 15:20:49 437.505
Cubesat XI-IV 20 Nov 15:19:04 15:21:28 13° 53° (NE) 15:23:52 437.490
RS-15 20 Nov 15:31:57 15:40:53 31° 105° (ESE) 15:49:47 29.354- 29.394
AO-7 20 Nov 15:41:30 15:49:30 52° 259° (WSW) 15:57:36 29.400- 29.500
STARS 20 Nov 15:50:40 15:54:12 24° 296° (WNW) 15:57:44 437.465
CUTE-I 20 Nov 15:59:48 16:04:11 26° 61° (ENE) 16:08:34 437.470
YUBILEINY 20 Nov 16:11:33 16:16:45 18° 286° (WNW) 16:21:58 435.215
KKS-1 20 Nov 16:20:21 16:21:20 11° 304° (NW) 16:22:19 437.445
VERMONT LUNAR 20 Nov 16:21:31 16:22:38 11° 153° (SSE) 16:23:45 437.305
MaSat-1 20 Nov 16:36:01 16:39:05 69° 300° (WNW) 16:41:52 437.345
MOZHAYETS 4 20 Nov 16:37:39 16:42:14 55° 100° (E) 16:46:48
O/OREOS (USA 219) 20 Nov 16:45:35 16:49:58 56° 250° (WSW) 16:54:19 437.305
JAS-2 20 Nov 16:49:04 16:56:22 55° 262° (W) 17:04:06 435.910
PRISM 20 Nov 16:52:31 16:55:06 16° 91° (E) 16:57:39 437.425
Cubesat XI-IV 20 Nov 16:55:18 17:00:39 73° 72° (ENE) 17:06:01 437.490
HO-68 20 Nov 17:08:42 17:10:59 12° 40° (NE) 17:13:16 435.675
PHONESAT 2.4 20 Nov 17:22:16 17:24:49 18° 160° (SSE) 17:27:22 2401.200-2431.200
CUTE-I 20 Nov 17:38:44 17:43:58 52° 260° (W) 17:49:13 437.470
RS-15 20 Nov 17:41:02 17:52:01 83° 308° (NW) 18:03:05 29.354- 29.394
STRAND 1 20 Nov 17:43:31 17:47:26 22° 92° (E) 17:51:19 437.568
VERMONT LUNAR 20 Nov 17:57:22 18:00:24 25° 169° (S) 18:03:26 437.305
CUBESAT XI-V 20 Nov 18:01:45 18:05:59 32° 95° (E) 18:10:08 437.345
GONETS M04 20 Nov 18:05:26 18:12:56 29° 63° (ENE) 18:20:21
MOZHAYETS 4 20 Nov 18:15:43 18:19:06 20° 298° (WNW) 18:22:28
CUTE 1.7 & AOD 2 20 Nov 18:16:57 18:17:41 10° 57° (ENE) 18:18:26 437.475
BRITE-PL 20 Nov 18:18:42 18:21:13 14° 59° (ENE) 18:23:39 437.365/2234.400
GOMX 1 20 Nov 18:22:50 18:23:43 11° 57° (ENE) 18:24:35 467.674
PRISM 20 Nov 18:26:50 18:31:01 57° 288° (WNW) 18:35:10 437.425
Cubesat XI-IV 20 Nov 18:37:47 18:41:18 18° 271° (W) 18:44:50 437.490
JAS-2 20 Nov 18:41:30 18:43:10 11° 283° (WNW) 18:44:52 435.910
HO-68 20 Nov 18:50:13 18:56:57 46° 62° (ENE) 19:03:44 435.675
SEEDS 20 Nov 18:55:00 18:58:10 21° 64° (ENE) 19:01:21 437.485
PHONESAT 2.4 20 Nov 18:59:46 19:03:02 29° 176° (S) 19:06:17 2401.200-2431.200
AIST 1 20 Nov 19:09:48 19:13:08 22° 87° (E) 19:16:30
CANX-2 20 Nov 19:13:33 19:17:28 39° 70° (ENE) 19:21:24 2200.000
STRAND 1 20 Nov 19:21:57 19:26:58 55° 290° (WNW) 19:31:55 437.568
AAUSAT CUBESAT 2 20 Nov 19:23:34 19:27:13 30° 68° (ENE) 19:30:53 437.432
CINEMA 3 20 Nov 19:27:09 19:30:15 19° 63° (ENE) 19:33:16 145.822/145.860
SHINDAISAT 20 Nov 19:32:30 19:34:30 66° 53° (NE) 19:36:29 437.305
COMPASS 1 20 Nov 19:34:15 19:38:12 43° 71° (ENE) 19:42:11 437.405
VERMONT LUNAR 20 Nov 19:35:15 19:38:24 28° 186° (S) 19:41:33 437.305
CUBESAT XI-V 20 Nov 19:39:14 19:43:24 32° 293° (WNW) 19:47:32 437.345
CUBEBUG 2 20 Nov 19:41:56 19:44:42 17° 62° (ENE) 19:47:26 437.445
DOVE 4 20 Nov 19:42:24 19:46:49 41° 70° (ENE) 19:51:01 437.250
FUNcube-1 20 Nov 19:44:46 19:46:52 14° 60° (ENE) 19:48:58 145.935
CUTE 1.7 & AOD 2 20 Nov 19:48:41 19:52:54 83° 75° (ENE) 19:57:09 437.475
UKube-1 20 Nov 19:49:38 19:53:28 31° 66° (ENE) 19:57:20 .
BRITE-PL 20 Nov 19:53:57 19:59:09 89° 80° (E) 20:03:59 437.365/2234.400
UWE-3 20 Nov 19:54:30 19:57:33 20° 64° (ENE) 20:00:35 435.000/436.395/437.385
GOMX 1 20 Nov 19:56:13 20:01:08 72° 74° (ENE) 20:05:44 467.674
RS-15 20 Nov 19:56:15 20:06:09 37° 338° (NNW) 20:16:15 29.354- 29.394
DELFI C3 20 Nov 19:59:07 20:02:44 32° 68° (ENE) 20:06:23 145.870
GONETS M04 20 Nov 20:01:49 20:10:39 74° 266° (W) 20:19:23
Oscar 11 20 Nov 20:05:18 20:09:23 45° 70° (ENE) 20:13:30 145.826/435.025
50 SAT 20 Nov 20:06:16 20:07:39 12° 59° (ENE) 20:09:03 437.505
PCSat 20 Nov 20:14:47 20:19:47 40° 113° (ESE) 20:24:49 145.827
DX 1 20 Nov 20:18:33 20:22:53 61° 72° (ENE) 20:27:14 434.975-435.025
VELOX 1 20 Nov 20:22:42 20:26:17 24° 64° (ENE) 20:29:53 145.980
SEEDS 20 Nov 20:29:49 20:33:46 41° 262° (W) 20:37:47 437.485
HO-68 20 Nov 20:38:00 20:44:43 42° 262° (W) 20:51:30 435.675
PHONESAT 2.4 20 Nov 20:38:18 20:41:19 24° 194° (SSW) 20:44:20 2401.200-2431.200
ZACube-1 20 Nov 20:41:53 20:45:58 48° 71° (ENE) 20:50:01 437.345
AISAT 20 Nov 20:44:27 20:48:36 38° 68° (ENE) 20:52:46 437.250
AIST 1 20 Nov 20:46:26 20:50:33 39° 285° (WNW) 20:54:44
CANX-2 20 Nov 20:50:17 20:53:34 22° 267° (W) 20:56:52 2200.000
AAUSAT CUBESAT 2 20 Nov 20:59:22 21:02:55 27° 265° (W) 21:06:30 437.432
CINEMA 3 20 Nov 21:02:47 21:07:10 52° 260° (W) 21:11:24 145.822/145.860
BEESAT 3 20 Nov 21:07:55 21:11:45 39° 119° (ESE) 21:15:39 437.485
HUMSAT D 20 Nov 21:09:58 21:14:03 59° 73° (ENE) 21:18:08 437.325/437.525
COMPASS 1 20 Nov 21:11:11 21:14:10 19° 268° (W) 21:17:11 437.405
VERMONT LUNAR 20 Nov 21:14:08 21:16:16 15° 203° (SSW) 21:18:24 437.305
CUBEBUG 2 20 Nov 21:16:47 21:21:03 56° 260° (W) 21:25:13 437.445
BEESAT 2 20 Nov 21:18:18 21:22:14 45° 120° (ESE) 21:26:15 435.950
FUNcube-1 20 Nov 21:18:29 21:22:43 72° 258° (WSW) 21:26:56 145.935
CUBEBUG 1 20 Nov 21:20:04 21:24:01 32° 67° (ENE) 21:28:00 437.445
DOVE 4 20 Nov 21:20:53 21:24:44 24° 266° (W) 21:28:25 437.250
UKube-1 20 Nov 21:25:49 21:29:38 29° 264° (W) 21:33:28 .
AIST 2 20 Nov 21:26:42 21:30:23 30° 116° (ESE) 21:34:08 435.215
ANTELSAT 20 Nov 21:27:00 21:29:49 17° 91° (E) 21:32:40 437.575/2403.000
CUTE 1.7 & AOD 2 20 Nov 21:28:53 21:29:27 10° 273° (W) 21:30:01 437.475
UWE-3 20 Nov 21:29:42 21:33:50 47° 261° (W) 21:37:55 435.000/436.395/437.385
DUCHIFAT 1 20 Nov 21:31:33 21:33:11 12° 88° (E) 21:34:50 145.980
DELFI C3 20 Nov 21:34:44 21:38:06 25° 266° (W) 21:41:30 145.870
SPROUT 20 Nov 21:34:50 21:36:32 12° 58° (ENE) 21:38:13 437.525
ESTCUBE 1 20 Nov 21:35:30 21:39:51 47° 70° (ENE) 21:44:15 437.505/2401.250
BRITE-PL 20 Nov 21:36:07 21:38:13 12° 272° (W) 21:40:15 437.365/2234.400
GOMX 1 20 Nov 21:36:58 21:39:40 15° 270° (W) 21:42:18 467.674
50 SAT 20 Nov 21:38:21 21:42:24 81° 257° (WSW) 21:46:28 437.505
TISAT 1 20 Nov 21:42:31 21:45:10 16° 61° (ENE) 21:47:49 437.305
Oscar 11 20 Nov 21:42:39 21:45:48 20° 268° (W) 21:48:58 145.826/435.025
NANOSAT C BR1 20 Nov 21:48:51 21:51:50 19° 92° (E) 21:54:48 145.865
DX 1 20 Nov 21:56:58 21:59:32 15° 270° (W) 22:02:07 434.975-435.025
QB50P1 20 Nov 21:57:37 22:00:59 23° 94° (E) 22:04:20 145.935-145.965
PCSat 20 Nov 21:58:09 22:03:13 39° 313° (NW) 22:08:20 145.827
VELOX 1 20 Nov 21:58:25 22:02:40 41° 261° (W) 22:06:56 145.980
GONETS M04 20 Nov 22:00:57 22:05:49 16° 288° (WNW) 22:10:41
RS-15 20 Nov 22:12:48 22:22:26 33° 12° (NNE) 22:32:18 29.354- 29.394
AUBIESAT-1 20 Nov 22:16:14 22:18:38 15° 52° (NE) 22:21:09 437.475
M-CUBED/EXP-1 PRIME 20 Nov 22:17:00 22:19:36 17° 53° (NE) 22:22:19 437.505
ZACube-1 20 Nov 22:19:43 22:22:37 18° 268° (W) 22:25:30 437.345
POPSAT HIP 1 20 Nov 22:21:10 22:25:09 39° 98° (E) 22:29:06 437.405
AISAT 20 Nov 22:21:38 22:25:21 25° 266° (W) 22:29:05 437.250
TIGRISAT 20 Nov 22:24:18 22:28:37 60° 101° (E) 22:33:00 435.000
UNISAT 6 20 Nov 22:34:33 22:38:56 78° 103° (ESE) 22:43:24 437.425
BUGSAT 1 20 Nov 22:39:04 22:43:07 50° 100° (E) 22:47:04 437.445
BEESAT 3 20 Nov 22:46:25 22:50:05 30° 319° (NW) 22:53:49 437.485
HUMSAT D 20 Nov 22:48:02 22:50:16 14° 270° (W) 22:52:30 437.325/437.525
POLYITAN 1 20 Nov 22:50:52 22:55:08 82° 104° (ESE) 22:59:21 437.675
QB50P2 20 Nov 22:55:22 22:59:38 89° 283° (WNW) 23:03:51 145.880/145.840
CUBEBUG 1 20 Nov 22:56:31 23:00:24 29° 265° (W) 23:04:19 437.445
BEESAT 2 20 Nov 22:57:09 23:00:43 27° 320° (NW) 23:04:21 435.950
ITUPSAT 1 20 Nov 22:57:56 23:01:09 18° 59° (ENE) 23:04:22 437.325
ANTELSAT 20 Nov 23:02:41 23:06:58 56° 288° (WNW) 23:11:20 437.575/2403.000
AIST 2 20 Nov 23:04:56 23:08:56 38° 315° (NW) 23:13:00 435.215
DUCHIFAT 1 20 Nov 23:05:22 23:09:35 72° 286° (WNW) 23:13:46 145.980
SPROUT 20 Nov 23:07:38 23:11:58 88° 256° (WSW) 23:16:20 437.525
SWISSCUBE 20 Nov 23:10:27 23:14:18 25° 63° (ENE) 23:18:10 437.505
ESTCUBE 1 20 Nov 23:13:34 23:16:59 21° 268° (W) 23:20:26 437.505/2401.250
TISAT 1 20 Nov 23:16:20 23:20:34 61° 259° (WSW) 23:24:50 437.305
NANOSAT C BR1 20 Nov 23:23:56 23:27:59 46° 290° (WNW) 23:32:00 145.865
CUSAT 1 20 Nov 23:27:24 23:30:56 35° 76° (ENE) 23:35:31 437.405
DANDE 20 Nov 23:27:42 23:30:57 28° 75° (ENE) 23:35:03 436.750
QB50P1 20 Nov 23:33:07 23:37:01 37° 291° (WNW) 23:40:54 145.935-145.965
BEESAT 20 Nov 23:42:02 23:46:32 42° 68° (ENE) 23:51:04 436.000
PCSat 20 Nov 23:45:47 23:48:13 13° 337° (NNW) 23:50:39 145.827
AUBIESAT-1 20 Nov 23:49:08 23:53:02 71° 252° (WSW) 23:57:22 437.475
M-CUBED/EXP-1 PRIME 20 Nov 23:50:15 23:54:07 63° 253° (WSW) 23:58:25 437.505
POPSAT HIP 1 20 Nov 23:57:33 00:00:52 23° 296° (WNW) 00:04:09 437.405
TIGRISAT 21 Nov 00:02:12 00:04:59 17° 299° (WNW) 00:07:47 435.000
KKS-1 21 Nov 00:07:28 00:10:28 18° 61° (ENE) 00:13:28 437.445
UNISAT 6 21 Nov 00:13:00 00:15:12 14° 301° (WNW) 00:17:25 437.425
BUGSAT 1 21 Nov 00:15:29 00:18:16 18° 298° (WNW) 00:21:01 437.445
RS-15 21 Nov 00:26:30 00:37:31 62° 43° (NE) 00:48:59 29.354- 29.394
POLYITAN 1 21 Nov 00:28:44 00:30:29 12° 302° (WNW) 00:32:13 437.675
ISS 21 Nov 00:31:04 00:32:55 14° 135° (SE) 00:34:46 145.825
QB50P2 21 Nov 00:33:35 00:34:53 11° 303° (WNW) 00:36:11 145.880/145.840
ITUPSAT 1 21 Nov 00:33:45 00:38:32 68° 258° (WSW) 00:43:22 437.325
MaSat-1 21 Nov 00:38:46 00:40:43 23° 54° (NE) 00:42:40 437.345
SWISSCUBE 21 Nov 00:47:18 00:51:55 46° 261° (W) 00:56:34 437.505
AIST 2 21 Nov 00:47:24 00:48:46 11° 338° (NNW) 00:50:08 435.215
Oscar 19 21 Nov 00:54:55 00:59:47 40° 98° (E) 01:04:37 437.125/150
CUSAT 1 21 Nov 01:10:52 01:14:02 22° 265° (W) 01:17:55 437.405
DANDE 21 Nov 01:11:13 01:14:24 25° 264° (W) 01:18:21 436.750
STARS 21 Nov 01:13:53 01:18:10 51° 71° (ENE) 01:22:27 437.465
BEESAT 21 Nov 01:20:36 01:24:33 25° 266° (W) 01:28:31 436.000
YUBILEINY 21 Nov 01:22:45 01:29:34 26° 79° (E) 01:36:23 435.215
Gurwin Techsat 1B 21 Nov 01:34:02 01:38:12 23° 92° (E) 01:42:19 435.225
ITAMSAT 1 21 Nov 01:35:08 01:39:58 37° 97° (E) 01:44:44 435.822/435.867
KKS-1 21 Nov 01:42:18 01:46:42 58° 259° (W) 01:51:07 437.445
ISS 21 Nov 02:05:50 02:09:07 79° 152° (SSE) 02:12:25 145.825
MOZHAYETS 4 21 Nov 02:09:58 02:10:46 10° 55° (NE) 02:11:35
MaSat-1 21 Nov 02:14:58 02:15:12 10° 252° (WSW) 02:15:25 437.345
Oscar 19 21 Nov 02:34:32 02:39:00 31° 296° (WNW) 02:43:27 437.125/150
RS-15 21 Nov 02:39:13 02:49:44 49° 248° (WSW) 03:00:42 29.354- 29.394
HORYU 2 21 Nov 02:44:39 02:48:56 43° 99° (E) 02:53:12 437.375
STARS 21 Nov 02:51:55 02:54:58 18° 268° (W) 02:58:01 437.465
Gurwin Techsat 1B 21 Nov 03:13:19 03:18:30 55° 290° (WNW) 03:23:40 435.225
ITAMSAT 1 21 Nov 03:14:47 03:19:24 33° 296° (WNW) 03:23:58 435.822/435.867
YUBILEINY 21 Nov 03:16:38 03:25:28 77° 281° (W) 03:34:18 435.215
PCSat 21 Nov 03:16:41 03:20:13 17° 31° (NNE) 03:23:45 145.827
AO-7 21 Nov 03:39:09 03:47:10 47° 100° (E) 03:55:07 29.400- 29.500
MOZHAYETS 4 21 Nov 03:42:35 03:47:09 72° 74° (ENE) 03:51:46
ISS 21 Nov 03:42:52 03:45:59 38° 352° (N) 03:49:07 145.825
PRISM 21 Nov 03:46:35 03:49:32 19° 62° (ENE) 03:52:30 437.425
BEESAT 3 21 Nov 03:47:42 03:50:10 15° 30° (NNE) 03:52:37 437.485
SO-50 21 Nov 03:49:41 03:52:39 17° 111° (ESE) 03:55:39 436.795
JAS-2 21 Nov 03:56:48 04:02:42 25° 87° (E) 04:08:05 435.910
BEESAT 2 21 Nov 03:58:19 04:01:02 16° 31° (NNE) 04:03:43 435.950
AIST 2 21 Nov 04:07:57 04:10:08 14° 27° (NNE) 04:12:19 435.215
HORYU 2 21 Nov 04:21:51 04:25:23 23° 297° (WNW) 04:28:56 437.375
PCSat 21 Nov 04:59:20 05:04:45 63° 53° (NE) 05:10:07 145.827
STRAND 1 21 Nov 05:02:04 05:06:54 43° 67° (ENE) 05:11:46 437.568
CUBESAT XI-V 21 Nov 05:08:05 05:12:33 44° 70° (ENE) 05:17:03 437.345
Cubesat XI-IV 21 Nov 05:10:18 05:14:27 23° 92° (E) 05:18:34 437.490
YUBILEINY 21 Nov 05:17:57 05:23:57 20° 305° (NW) 05:29:58 435.215
ISS 21 Nov 05:19:55 05:23:06 42° 12° (NNE) 05:26:16 145.825
PRISM 21 Nov 05:20:40 05:24:45 49° 260° (W) 05:28:53 437.425
MOZHAYETS 4 21 Nov 05:22:33 05:24:55 14° 272° (W) 05:27:18
BEESAT 3 21 Nov 05:24:59 05:29:12 67° 51° (NE) 05:33:21 437.485
O/OREOS (USA 219) 21 Nov 05:25:06 05:26:18 11° 97° (E) 05:27:30 437.305
SO-50 21 Nov 05:28:07 05:32:39 70° 310° (NW) 05:37:21 436.795
AO-7 21 Nov 05:32:06 05:39:58 48° 300° (WNW) 05:47:50 29.400- 29.500
BEESAT 2 21 Nov 05:35:48 05:40:02 77° 52° (NE) 05:44:14 435.950
JAS-2 21 Nov 05:41:00 05:48:30 72° 289° (WNW) 05:55:09 435.910
AIST 2 21 Nov 05:45:30 05:49:45 53° 48° (NE) 05:53:56 435.215
CUTE-I 21 Nov 05:52:41 05:57:53 50° 100° (E) 06:03:01 437.470
STRAND 1 21 Nov 06:41:50 06:46:14 28° 266° (W) 06:50:40 437.568
PCSat 21 Nov 06:43:32 06:47:43 23° 252° (WSW) 06:51:52 145.827
CUBESAT XI-V 21 Nov 06:46:25 06:50:12 24° 268° (W) 06:54:00 437.345
Cubesat XI-IV 21 Nov 06:49:41 06:54:54 56° 290° (WNW) 07:00:05 437.490
AIST 1 21 Nov 06:50:20 06:54:45 70° 79° (E) 06:59:06
ISS 21 Nov 06:56:36 06:59:52 57° 211° (SSW) 07:03:07 145.825
O/OREOS (USA 219) 21 Nov 07:00:28 07:04:58 87° 295° (WNW) 07:09:29 437.305
BEESAT 3 21 Nov 07:04:26 07:06:56 16° 249° (WSW) 07:09:25 437.485
SO-50 21 Nov 07:10:57 07:14:04 18° 332° (NNW) 07:17:16 436.795
GONETS M04 21 Nov 07:11:34 07:18:40 29° 80° (E) 07:25:47
BEESAT 2 21 Nov 07:15:41 07:17:45 14° 250° (WSW) 07:19:50 435.950
AIST 2 21 Nov 07:24:50 07:28:03 21° 247° (WSW) 07:31:15 435.215
AO-7 21 Nov 07:26:46 07:30:47 15° 324° (NW) 07:34:47 29.400- 29.500
JAS-2 21 Nov 07:27:25 07:32:09 18° 311° (NW) 07:36:39 435.910
CUTE 1.7 & AOD 2 21 Nov 07:33:15 07:34:55 12° 88° (E) 07:36:35 437.475
CUTE-I 21 Nov 07:33:18 07:37:41 27° 298° (WNW) 07:42:02 437.470
GOMX 1 21 Nov 07:56:42 07:58:52 14° 89° (E) 08:01:02 467.674
BRITE-PL 21 Nov 07:56:55 07:59:55 19° 92° (E) 08:02:53 437.365/2234.400
HO-68 21 Nov 08:01:56 08:08:22 34° 95° (E) 08:14:45 435.675
UNISAT 6 21 Nov 08:03:14 08:05:01 12° 58° (ENE) 08:06:49 437.425
SEEDS 21 Nov 08:11:46 08:15:22 26° 94° (E) 08:18:57 437.485
POLYITAN 1 21 Nov 08:14:34 08:16:08 12° 58° (ENE) 08:17:42 437.675
QB50P2 21 Nov 08:18:26 08:20:23 13° 59° (ENE) 08:22:19 145.880/145.840
DUCHIFAT 1 21 Nov 08:27:26 08:29:57 15° 60° (ENE) 08:32:27 145.980
ANTELSAT 21 Nov 08:29:33 08:32:50 22° 64° (ENE) 08:36:06 437.575/2403.000
AIST 1 21 Nov 08:29:55 08:31:48 13° 278° (W) 08:33:40
CANX-2 21 Nov 08:31:42 08:35:54 51° 100° (E) 08:40:05 2200.000
Cubesat XI-IV 21 Nov 08:33:35 08:33:52 10° 310° (NW) 08:34:09 437.490
AAUSAT CUBESAT 2 21 Nov 08:39:27 08:43:24 38° 97° (E) 08:47:21 437.432
O/OREOS (USA 219) 21 Nov 08:42:42 08:45:06 14° 315° (NW) 08:47:29 437.305
NANOSAT C BR1 21 Nov 08:44:58 08:48:16 22° 64° (ENE) 08:51:35 145.865
COMPASS 1 21 Nov 08:50:47 08:54:58 56° 100° (E) 08:59:09 437.405
QB50P1 21 Nov 08:53:45 08:57:20 27° 66° (ENE) 09:00:56 145.935-145.965
CINEMA 3 21 Nov 08:55:01 08:58:33 26° 95° (E) 09:02:08 145.822/145.860
FUNcube-1 21 Nov 09:05:10 09:07:55 17° 91° (E) 09:10:41 145.935
CUBEBUG 2 21 Nov 09:05:30 09:08:49 22° 94° (E) 09:12:10 437.445
GONETS M04 21 Nov 09:05:55 09:14:41 72° 282° (WNW) 09:23:34
CUTE 1.7 & AOD 2 21 Nov 09:07:06 09:11:22 74° 285° (WNW) 09:15:39 437.475
UKube-1 21 Nov 09:10:18 09:14:20 36° 98° (E) 09:18:20 .
DELFI C3 21 Nov 09:11:59 09:15:51 37° 97° (E) 09:19:42 145.870
DOVE 4 21 Nov 09:16:01 09:20:10 71° 102° (ESE) 09:24:21 437.250
UWE-3 21 Nov 09:16:59 09:20:30 26° 95° (E) 09:24:04 435.000/436.395/437.385
POPSAT HIP 1 21 Nov 09:17:12 09:21:17 45° 70° (ENE) 09:25:21 437.405
50 SAT 21 Nov 09:18:37 09:20:03 12° 89° (E) 09:21:29 437.505
Oscar 11 21 Nov 09:25:36 09:29:55 60° 101° (E) 09:34:13 145.826/435.025
TIGRISAT 21 Nov 09:26:21 09:30:38 77° 74° (ENE) 09:34:54 435.000
BUGSAT 1 21 Nov 09:32:09 09:36:19 54° 72° (ENE) 09:40:30 437.445
GOMX 1 21 Nov 09:33:21 09:37:27 58° 287° (WNW) 09:41:32 467.674
BRITE-PL 21 Nov 09:34:45 09:38:43 41° 290° (WNW) 09:42:36 437.365/2234.400
UNISAT 6 21 Nov 09:36:55 09:41:13 82° 256° (WSW) 09:45:31 437.425
DX 1 21 Nov 09:40:14 09:44:37 76° 103° (ESE) 09:48:57 434.975-435.025
VELOX 1 21 Nov 09:46:29 09:50:23 29° 96° (E) 09:54:14 145.980
POLYITAN 1 21 Nov 09:47:10 09:51:27 88° 255° (WSW) 09:55:45 437.675
SEEDS 21 Nov 09:47:26 09:51:15 33° 292° (WNW) 09:55:05 437.485
HO-68 21 Nov 09:49:24 09:56:22 55° 295° (WNW) 10:03:17 435.675
QB50P2 21 Nov 09:51:26 09:55:43 80° 257° (WSW) 10:00:01 145.880/145.840
DUCHIFAT 1 21 Nov 10:01:07 10:05:21 64° 258° (WSW) 10:09:36 145.980
ZACube-1 21 Nov 10:03:48 10:07:59 68° 102° (ESE) 10:12:13 437.345
ANTELSAT 21 Nov 10:05:21 10:09:25 41° 262° (W) 10:13:30 437.575/2403.000
CANX-2 21 Nov 10:08:33 10:11:30 18° 297° (WNW) 10:14:27 2200.000
AISAT 21 Nov 10:09:03 10:13:23 50° 100° (E) 10:17:41 437.250
AAUSAT CUBESAT 2 21 Nov 10:15:34 10:18:55 23° 295° (WNW) 10:22:16 437.432
NANOSAT C BR1 21 Nov 10:19:55 10:23:57 41° 262° (W) 10:28:00 145.865
HUMSAT D 21 Nov 10:27:22 10:31:32 76° 103° (ESE) 10:35:42 437.325/437.525
COMPASS 1 21 Nov 10:27:35 10:30:19 17° 298° (WNW) 10:33:03 437.405
QB50P1 21 Nov 10:29:17 10:33:09 33° 263° (W) 10:37:02 145.935-145.965
CINEMA 3 21 Nov 10:32:09 10:35:49 31° 292° (WNW) 10:39:31 145.822/145.860
SO-50 21 Nov 10:36:52 10:39:21 14° 22° (NNE) 10:41:50 436.795
Oscar 19 21 Nov 10:39:02 10:41:21 13° 54° (NE) 10:43:41 437.125/150
FUNcube-1 21 Nov 10:40:32 10:44:35 50° 288° (WNW) 10:48:40 145.935
CUBEBUG 2 21 Nov 10:41:49 10:45:40 37° 291° (WNW) 10:49:34 437.445
CUBEBUG 1 21 Nov 10:42:12 10:46:23 41° 98° (E) 10:50:30 437.445
UKube-1 21 Nov 10:46:46 10:50:22 26° 296° (WNW) 10:53:56 .
DELFI C3 21 Nov 10:47:43 10:50:59 23° 295° (WNW) 10:54:15 145.870
50 SAT 21 Nov 10:51:49 10:55:52 69° 286° (WNW) 10:59:54 437.505
SPROUT 21 Nov 10:53:17 10:55:24 13° 89° (E) 10:57:30 437.525
UWE-3 21 Nov 10:53:22 10:57:07 32° 292° (WNW) 11:00:53 435.000/436.395/437.385
POPSAT HIP 1 21 Nov 10:54:19 10:57:25 19° 268° (W) 11:00:32 437.405
DOVE 4 21 Nov 10:55:30 10:57:27 13° 300° (WNW) 10:59:24 437.250
TISAT 1 21 Nov 10:59:36 11:02:25 17° 91° (E) 11:05:14 437.305
ESTCUBE 1 21 Nov 11:02:03 11:06:37 69° 102° (ESE) 11:11:08 437.505/2401.250
Oscar 11 21 Nov 11:02:54 11:05:39 17° 299° (WNW) 11:08:24 145.826/435.025
TIGRISAT 21 Nov 11:06:36 11:07:57 11° 272° (W) 11:09:18 435.000
GONETS M04 21 Nov 11:07:43 11:13:23 18° 307° (NW) 11:19:07
BUGSAT 1 21 Nov 11:09:28 11:12:10 16° 269° (W) 11:14:52 437.445
DX 1 21 Nov 11:18:01 11:20:17 14° 302° (WNW) 11:22:34 434.975-435.025
ITAMSAT 1 21 Nov 11:20:10 11:22:35 13° 54° (NE) 11:25:00 435.822/435.867
VELOX 1 21 Nov 11:23:02 11:26:59 32° 294° (WNW) 11:30:53 145.980
YUBILEINY 21 Nov 11:27:59 11:32:56 16° 51° (NE) 11:37:50 435.215
SHINDAISAT 21 Nov 11:31:39 11:33:35 67° 307° (NW) 11:35:32 437.305
HO-68 21 Nov 11:39:12 11:42:33 14° 317° (NW) 11:45:55 435.675
ZACube-1 21 Nov 11:41:41 11:43:53 14° 300° (WNW) 11:46:06 437.345
AISAT 21 Nov 11:46:28 11:49:42 20° 298° (WNW) 11:52:55 437.250
HUMSAT D 21 Nov 12:04:58 12:06:48 13° 301° (WNW) 12:08:37 437.325/437.525
Oscar 19 21 Nov 12:14:46 12:19:52 79° 73° (ENE) 12:25:01 437.125/150
SO-50 21 Nov 12:16:32 12:21:09 42° 44° (NE) 12:25:48 436.795
CUBEBUG 1 21 Nov 12:19:05 12:22:33 23° 296° (WNW) 12:25:59 437.445
SPROUT 21 Nov 12:27:41 12:31:58 66° 287° (WNW) 12:36:12 437.525
ITUPSAT 1 21 Nov 12:32:00 12:36:01 25° 94° (E) 12:39:59 437.325
TISAT 1 21 Nov 12:34:28 12:38:34 49° 289° (WNW) 12:42:37 437.305
ESTCUBE 1 21 Nov 12:40:11 12:42:59 16° 300° (WNW) 12:45:46 437.505/2401.250
SWISSCUBE 21 Nov 12:44:47 12:49:14 36° 97° (E) 12:53:38 437.505
CUSAT 1 21 Nov 12:45:17 12:47:36 22° 96° (E) 12:49:45 437.405
DANDE 21 Nov 12:48:13 12:50:30 20° 96° (E) 12:52:35 436.750
AO-7 21 Nov 12:51:52 12:57:52 23° 46° (NE) 13:03:54 29.400- 29.500
ITAMSAT 1 21 Nov 12:56:01 13:01:14 77° 73° (ENE) 13:06:28 435.822/435.867
Gurwin Techsat 1B 21 Nov 12:57:51 13:02:55 47° 68° (ENE) 13:08:01 435.225
AUBIESAT-1 21 Nov 13:03:22 13:08:14 63° 107° (ESE) 13:13:05 437.475
M-CUBED/EXP-1 PRIME 21 Nov 13:04:50 13:09:44 70° 107° (ESE) 13:14:39 437.505
BEESAT 21 Nov 13:16:51 13:21:39 67° 102° (ESE) 13:26:25 436.000
YUBILEINY 21 Nov 13:23:09 13:31:51 64° 76° (ENE) 13:40:27 435.215
KKS-1 21 Nov 13:31:15 13:34:41 22° 93° (E) 13:38:06 437.445
HORYU 2 21 Nov 13:46:11 13:50:31 58° 72° (ENE) 13:54:54 437.375
Oscar 19 21 Nov 13:56:59 13:59:50 15° 272° (W) 14:02:42 437.125/150
SO-50 21 Nov 13:57:16 14:01:39 34° 243° (WSW) 14:06:02 436.795
ITUPSAT 1 21 Nov 14:09:31 14:14:04 42° 292° (WNW) 14:18:35 437.325
JAS-2 21 Nov 14:12:20 14:17:37 21° 51° (NE) 14:22:58 435.910
SWISSCUBE 21 Nov 14:22:50 14:27:01 30° 295° (WNW) 14:31:10 437.505
CUSAT 1 21 Nov 14:30:12 14:30:47 11° 291° (WNW) 14:31:22 437.405
DANDE 21 Nov 14:32:42 14:33:59 12° 290° (WNW) 14:35:13 436.750
STARS 21 Nov 14:37:19 14:41:43 68° 102° (ESE) 14:46:05 437.465
ITAMSAT 1 21 Nov 14:38:11 14:41:19 16° 271° (W) 14:44:27 435.822/435.867
Gurwin Techsat 1B 21 Nov 14:38:41 14:43:06 27° 267° (W) 14:47:34 435.225
AUBIESAT-1 21 Nov 14:39:07 14:42:48 22° 304° (NW) 14:46:31 437.475
M-CUBED/EXP-1 PRIME 21 Nov 14:40:48 14:44:19 20° 305° (NW) 14:47:51 437.505
AO-7 21 Nov 14:41:12 14:49:28 79° 68° (ENE) 14:57:48 29.400- 29.500
BEESAT 21 Nov 14:55:48 14:59:00 18° 301° (WNW) 15:02:11 436.000
RS-15 21 Nov 14:57:44 15:05:25 23° 100° (E) 15:13:03 29.354- 29.394
